Wind_Speed
18 18 17 17 17 17 17 18 18 19 20 21 22 22 22 22 22 22 22 21 21 20 19 19 19 19 19 17 15 14 13 14 15 15 15 14 14 13 13 12 11 11 12 12 13 13 13 13 11 10 9 10 11 10 10 10 10 10 11 11 11 10 10 12 14 16 17 18 17 17 15 14 12 10 9 7 5 3 1 3 5 8 11 14 17
18 18 18 18 18 18 18 19 20 20 21 22 22 22 22 22 22 22 22 21 20 21 20 20 20 20 20 18 17 17 16 15 15 14 13 13 13 13 13 13 12 12 13 13 13 14 14 14 12 10 10 11 11 10 10 10 10 11 12 12 11 12 15 17 18 18 18 18 17 16 15 14 13 11 10 7 5 4 4 5 7 9 11 13 15
19 19 19 19 19 19 20 20 21 22 22 22 23 22 22 21 21 21 22 21 20 20 20 20 20 20 19 18 17 17 17 16 15 13 12 12 12 13 13 13 13 14 14 14 13 14 14 13 12 10 11 12 11 10 9 9 11 12 12 12 13 17 19 19 19 18 18 17 16 16 15 14 13 11 9 7 7 7 9 10 12 13 14 15 15
21 20 20 20 20 21 21 22 22 22 23 23 23 23 22 21 20 21 21 20 19 18 18 18 19 19 19 18 18 17 16 16 16 15 13 13 13 13 13 14 15 15 15 15 13 13 14 13 11 10 11 11 11 10 9 10 12 12 13 14 19 20 20 20 19 18 17 16 16 16 15 13 12 10 9 8 9 11 13 14 15 16 16 16 16
21 21 21 21 21 21 22 22 22 22 23 23 23 23 22 21 20 19 19 19 18 17 16 16 16 17 19 20 19 18 17 16 17 17 16 15 14 14 14 14 16 16 15 14 13 13 13 12 11 10 10 10 10 9 10 12 13 14 14 19 21 21 20 19 18 17 16 17 17 16 14 13 11 10 10 11 13 14 15 16 17 17 17 16 16
20 21 21 22 22 22 22 23 23 24 23 23 23 22 21 21 20 19 18 18 18 16 15 14 14 16 18 19 19 19 18 17 17 18 18 17 16 15 14 15 16 16 14 12 12 12 12 11 10 10 10 10 10 10 11 13 14 15 18 22 21 21 20 19 18 18 18 17 16 15 13 12 12 12 14 15 16 17 17 18 18 18 18 17 18
20 20 20 22 23 23 23 24 24 24 24 24 23 21 20 20 20 19 18 17 17 16 15 15 15 17 18 18 18 18 19 18 17 17 18 17 17 17 15 14 15 14 13 10 10 10 10 10 10 10 10 10 11 11 13 15 16 17 20 22 21 21 20 19 19 18 18 17 16 14 13 13 14 15 16 18 18 19 20 21 21 21 20 20 21
19 19 19 21 22 23 23 23 23 23 23 22 21 20 19 19 18 17 17 17 17 17 16 16 18 19 19 19 19 19 19 19 18 17 18 18 17 17 15 14 14 13 12 10 9 9 10 10 10 11 11 12 12 13 15 17 18 19 21 21 20 20 19 18 18 18 17 16 15 14 14 15 16 17 19 20 21 22 23 25 25 24 23 23 24
19 18 18 19 20 21 22 22 22 21 21 20 18 18 17 16 15 16 16 17 17 17 18 19 20 21 21 22 22 21 21 20 19 18 18 17 18 18 18 16 14 14 13 12 11 11 11 11 12 13 13 13 14 16 18 20 20 20 20 19 18 18 18 17 16 16 16 16 16 16 16 16 18 20 21 22 24 25 27 28 27 27 26 26 27
18 18 17 17 17 19 20 21 21 21 19 18 16 15 15 14 14 14 15 16 17 18 19 20 21 22 23 23 23 23 23 22 21 19 19 18 19 20 20 18 16 16 15 14 13 13 13 13 14 15 15 16 17 19 21 22 22 22 21 19 18 18 17 16 16 17 17 17 18 18 17 19 21 23 24 25 27 28 29 30 30 30 29 29 30
17 17 17 17 17 17 18 19 19 19 18 17 16 16 15 15 15 15 15 15 17 18 19 20 21 22 22 22 23 23 23 22 22 21 21 21 20 21 21 20 18 17 17 16 16 16 15 16 17 17 17 19 20 22 23 23 23 23 22 21 20 19 18 18 19 19 20 20 20 20 19 21 23 25 26 28 29 30 31 31 32 32 32 32 32
16 16 16 16 16 17 17 17 17 17 17 17 17 17 17 17 16 16 16 16 17 19 21 22 22 22 21 21 22 23 23 22 22 22 22 22 21 21 21 21 20 19 19 19 19 19 19 19 19 20 21 22 23 24 25 25 25 24 24 23 22 22 22 21 22 22 22 22 22 22 22 23 25 26 28 29 30 32 33 33 33 34 34 34 35
18 18 17 16 16 17 17 17 17 17 17 17 16 16 16 16 16 16 17 18 20 21 22 23 22 22 22 22 22 23 23 23 23 23 23 22 22 22 22 22 22 21 21 22 22 22 22 22 22 23 24 25 25 26 26 26 26 26 25 25 25 25 24 24 24 25 25 25 25 24 24 25 26 27 27 29 30 32 33 34 35 35 36 36 37
22 20 19 18 17 17 17 17 17 17 16 16 16 16 16 16 17 17 18 20 20 21 22 22 22 23 23 24 24 24 24 25 25 25 25 25 24 24 24 24 24 24 24 25 25 25 25 25 26 26 27 27 27 27 27 27 27 27 27 27 27 27 27 27 27 28 28 27 27 26 25 25 26 26 27 28 29 31 33 34 35 36 37 37 38
25 23 22 21 20 19 18 18 18 18 17 16 16 17 18 20 21 21 21 21 22 22 23 24 24 24 25 25 25 25 26 27 27 28 28 28 28 28 28 28 28 28 28 28 28 29 29 29 29 29 29 30 30 30 30 30 29 29 29 29 29 29 29 30 30 30 31 30 30 28 27 27 27 27 27 28 29 31 32 33 35 36 36 37 38
28 27 26 24 23 21 20 20 19 19 19 19 18 19 21 23 24 24 23 23 24 26 26 26 26 26 26 26 27 28 29 30 30 31 31 32 32 32 32 32 32 32 32 32 33 33 33 33 33 33 33 33 33 33 33 33 33 32 32 32 32 32 32 32 32 33 33 33 33 31 31 31 30 29 29 30 31 32 33 34 35 36 37 37 38
30 29 28 27 26 24 23 22 21 20 20 21 22 23 24 25 24 24 23 24 25 26 27 27 28 27 27 28 29 30 32 33 33 34 35 36 36 37 38 38 38 38 38 38 38 38 38 39 39 39 39 39 39 39 38 38 37 37 36 36 36 36 36 36 36 36 37 37 37 36 37 36 36 35 35 35 35 35 35 35 36 37 37 38 39
31 30 30 29 28 27 26 24 23 22 22 23 24 24 24 24 24 24 24 24 26 27 28 29 29 28 29 30 32 33 35 36 37 38 39 40 41 41 42 43 44 44 44 45 45 45 45 45 46 46 46 46 46 45 45 44 44 43 43 42 42 42 42 42 42 43 43 44 44 44 45 45 44 44 43 43 42 40 40 39 38 39 39 40 41
33 32 31 30 29 28 27 25 25 24 24 25 25 25 24 23 24 26 26 27 28 29 29 30 30 30 31 32 34 36 37 39 40 40 42 43 44 45 46 47 48 49 49 50 50 50 51 51 51 51 52 51 51 51 51 51 50 49 49 48 48 47 47 47 47 47 48 48 48 49 50 50 50 50 51 50 50 48 47 45 44 43 42 42 43
35 34 33 32 31 30 28 26 25 25 25 25 25 25 24 23 25 26 28 28 29 29 30 30 30 31 32 34 36 37 39 40 41 42 43 45 46 47 48 49 50 51 52 52 52 53 53 53 54 54 54 54 54 54 53 53 53 52 51 50 50 49 48 48 48 48 48 48 48 49 50 50 51 51 52 53 54 53 53 52 51 50 48 47 46
35 35 34 34 33 32 30 28 25 24 24 24 24 24 24 23 25 26 27 28 28 29 29 29 30 31 33 35 36 38 39 40 41 42 43 44 45 46 47 48 49 50 51 51 52 52 53 53 53 53 53 53 53 53 53 53 52 52 51 50 50 49 49 48 48 48 47 47 46 46 47 48 48 49 50 51 52 53 54 55 55 55 55 54 52
35 35 35 35 34 33 32 30 28 26 24 24 24 24 24 23 23 24 26 26 27 27 28 28 29 31 33 34 36 37 38 39 40 41 42 42 43 44 45 46 47 48 48 49 50 50 51 51 52 52 52 52 52 52 52 52 52 51 51 50 50 49 49 49 48 48 47 46 45 45 46 46 47 47 47 48 49 51 52 53 54 55 56 56 56
35 35 35 35 35 34 33 32 30 29 27 26 26 25 24 23 23 24 25 25 25 26 27 28 29 31 32 33 34 35 36 36 37 38 39 39 40 41 43 44 44 45 46 46 47 48 48 49 49 49 50 50 50 51 51 51 51 51 50 50 49 49 49 49 48 48 48 46 45 44 45 45 46 46 46 46 47 48 49 50 51 52 53 54 55
33 34 34 34 34 34 34 33 31 30 29 28 26 25 25 25 24 25 25 25 24 24 25 27 29 30 31 32 32 33 34 34 35 35 36 37 38 39 40 41 42 42 43 44 45 45 46 46 47 47 47 48 48 49 49 49 49 49 49 48 48 49 49 48 48 48 47 46 45 44 44 44 44 45 44 44 45 46 47 48 49 49 50 51 52
31 32 32 32 33 33 33 33 32 30 29 27 26 25 25 25 25 25 25 25 24 24 24 26 27 29 29 30 30 31 31 31 32 32 33 34 35 36 37 38 38 39 40 41 41 42 42 43 44 44 44 45 45 45 45 45 46 46 46 46 46 46 46 46 46 45 45 44 44 44 44 44 45 45 44 44 44 44 45 46 46 46 47 48 49
30 30 30 30 31 31 31 31 31 30 28 27 25 24 24 24 25 25 25 25 24 23 23 24 26 27 27 27 28 28 28 29 29 29 30 31 31 32 33 34 34 35 37 38 38 39 39 39 40 40 41 41 42 42 42 42 42 43 43 44 44 44 43 43 43 43 42 42 42 42 42 43 44 44 44 44 44 44 44 44 44 45 45 45 46
28 29 29 29 29 29 29 29 29 29 28 27 25 24 23 24 25 25 25 24 23 23 23 24 25 26 26 26 25 25 26 26 26 27 27 27 28 28 29 29 30 31 33 34 35 36 36 36 37 37 38 38 38 39 39 39 40 40 41 41 41 41 41 41 41 40 40 40 40 40 40 41 41 42 41 42 42 43 43 43 43 43 43 43 43
27 27 28 28 28 28 28 27 27 27 27 26 26 24 24 24 25 25 25 24 23 22 23 23 24 24 24 24 23 23 23 23 24 25 25 25 25 25 26 27 28 29 30 31 32 32 32 33 33 33 34 34 35 35 36 37 37 38 38 38 38 39 39 39 39 39 38 38 38 38 39 39 39 39 39 40 40 40 41 41 41 41 42 42 41
25 25 26 26 26 27 26 26 25 25 25 25 25 24 23 23 24 24 24 23 22 21 21 22 23 23 22 22 21 21 21 21 22 22 23 23 23 24 24 25 25 26 27 28 28 29 29 29 30 30 31 31 32 32 33 33 34 34 35 35 35 36 36 36 37 37 36 37 37 37 37 37 37 37 37 38 38 38 38 38 39 39 39 40 39
22 23 24 24 24 25 25 25 24 23 23 23 23 23 22 21 22 22 22 22 21 20 20 21 21 21 20 20 19 19 19 19 19 20 21 21 21 21 21 22 22 23 23 24 24 25 26 26 26 27 28 28 29 29 30 31 31 31 32 32 32 33 33 34 34 34 34 35 35 35 35 35 35 35 35 35 35 35 36 36 37 37 37 37 37
21 21 21 22 22 23 23 23 23 22 22 21 21 21 21 19 19 19 20 21 21 20 19 20 20 19 19 18 17 17 17 17 17 17 18 18 18 18 18 18 18 19 19 20 21 22 23 23 24 24 25 25 26 27 28 28 29 29 29 29 30 30 31 31 31 32 32 32 33 33 33 33 33 33 33 33 33 33 33 33 34 34 34 34 35
19 19 19 19 19 20 21 21 22 21 21 20 20 20 20 19 18 18 18 19 20 20 19 18 18 17 17 17 16 16 15 14 14 14 14 15 15 15 15 14 14 15 15 16 18 19 20 21 21 22 23 23 24 25 26 27 27 27 28 28 29 29 29 29 30 30 30 31 31 31 31 31 31 31 31 32 31 31 31 31 31 31 31 32 32
15 16 17 17 17 18 19 19 20 20 20 19 19 19 19 19 18 17 16 16 17 17 18 17 17 16 15 15 15 14 13 12 12 12 12 12 12 12 12 12 12 12 13 14 15 16 18 19 19 20 21 21 22 23 23 24 25 25 26 27 28 28 28 28 28 29 29 29 30 30 30 29 29 29 29 30 30 30 29 29 29 29 30 30 29
11 12 14 14 15 15 15 16 17 18 18 18 18 18 18 17 17 16 15 14 14 14 14 14 14 13 13 13 12 12 11 11 11 11 11 11 11 10 10 10 10 10 11 12 13 14 15 16 16 17 18 18 19 19 20 21 22 23 24 25 26 27 27 28 28 28 28 28 28 28 29 29 28 28 28 28 28 28 28 29 29 29 29 29 29
7 8 9 11 11 12 12 13 14 14 15 16 16 17 17 16 16 16 15 14 13 12 11 10 10 10 10 10 10 9 9 9 10 10 10 10 9 9 8 7 7 8 8 9 10 10 11 12 13 13 14 15 16 16 17 18 19 20 22 24 25 26 26 26 27 27 27 27 27 27 27 28 29 29 29 28 28 28 28 28 28 28 28 29 28
4 5 6 7 7 9 10 10 10 11 11 12 13 14 14 15 15 15 15 15 14 13 11 10 9 8 8 8 8 7 7 7 7 8 8 8 7 7 6 5 5 5 6 6 7 7 7 8 9 10 11 12 13 13 14 16 17 19 21 22 23 24 24 24 25 26 26 26 26 26 26 28 29 29 29 30 30 30 30 29 29 29 29 28 28
5 5 5 5 4 5 6 7 7 7 7 8 10 11 12 12 12 13 15 15 14 12 10 9 8 7 6 6 6 6 5 6 6 6 7 7 7 6 5 5 4 3 3 3 4 4 4 4 5 6 7 8 9 11 12 15 17 18 19 20 21 21 22 22 23 23 23 24 25 26 27 27 28 29 29 30 31 31 31 31 31 30 30 30 29
7 7 7 6 5 4 3 3 4 4 4 5 6 7 8 9 10 9 10 11 11 10 9 8 7 6 5 4 3 4 5 5 5 6 7 7 8 8 7 6 5 4 3 3 2 1 0 2 3 4 5 7 9 11 13 15 16 17 18 18 18 19 20 20 20 21 21 22 24 25 26 27 27 27 28 29 30 30 31 31 31 31 31 31 30
9 8 7 7 6 5 4 2 2 2 2 3 3 4 4 5 6 7 7 7 8 8 9 8 8 7 5 3 1 1 3 3 4 5 7 8 9 9 9 8 7 6 5 4 3 3 2 3 4 5 6 8 10 11 13 14 15 16 16 16 16 17 17 18 18 19 20 21 22 24 25 26 27 27 27 27 27 28 28 28 29 29 29 30 30
13 11 9 8 8 7 6 5 4 4 4 3 3 3 3 3 4 5 5 4 5 6 6 6 6 7 7 7 6 4 4 3 4 5 6 8 9 10 11 11 10 10 8 7 6 6 5 5 6 6 7 8 9 10 11 12 13 14 14 15 15 15 15 16 16 17 19 19 20 23 25 27 28 29 29 29 28 28 28 28 28 28 28 28 28
16 14 13 11 11 10 9 7 6 6 6 6 5 5 6 6 6 7 7 5 3 5 6 5 5 5 6 7 7 8 8 7 6 5 6 8 9 10 11 12 12 12 12 10 9 8 7 6 5 4 4 6 7 8 9 10 12 13 14 15 15 14 14 15 15 15 16 17 19 21 23 25 27 28 28 29 29 29 29 29 29 29 29 29 28
19 17 16 16 15 14 12 11 9 8 8 8 8 8 8 9 9 9 10 9 7 7 7 8 8 8 8 7 7 7 8 9 10 9 8 8 9 10 11 11 12 12 12 11 10 9 7 5 3 1 1 3 6 7 9 10 11 12 13 15 15 14 14 14 14 13 13 15 16 17 19 20 23 24 25 26 27 27 27 27 27 27 28 28 28
23 22 21 21 20 18 16 14 12 11 10 10 10 11 11 12 12 12 13 13 12 11 11 12 12 12 12 12 12 10 9 9 11 12 13 12 11 10 11 11 12 13 12 11 11 10 8 6 4 3 2 4 5 6 7 9 10 10 11 13 14 14 13 13 13 13 12 13 14 15 16 17 20 22 23 24 25 25 25 26 25 26 26 26 26
28 26 25 25 24 22 19 17 15 14 14 14 13 13 14 14 15 15 16 16 16 15 15 15 15 16 16 16 16 16 14 13 12 13 15 15 14 13 12 12 13 13 12 11 11 11 11 9 7 5 3 3 3 5 6 7 8 9 9 11 12 12 12 12 13 13 12 13 14 15 16 17 19 21 22 23 24 24 24 25 24 25 26 26 26
30 29 27 27 26 24 22 20 18 17 16 16 16 15 16 17 18 19 20 20 21 20 19 19 19 18 18 19 19 19 19 18 17 16 16 16 17 16 16 15 14 13 13 12 12 12 12 11 9 6 3 1 3 5 7 7 7 8 9 10 11 11 11 11 12 13 13 13 14 15 16 18 20 21 22 23 24 23 24 24 24 25 26 26 26
31 30 28 28 28 27 25 23 20 18 18 18 19 18 18 20 21 21 22 23 24 24 24 23 22 22 21 21 21 22 22 22 21 21 21 20 19 18 18 18 17 15 14 14 14 14 14 13 11 9 7 6 7 7 7 7 7 9 10 11 11 11 11 12 13 13 14 14 15 15 17 19 21 22 22 24 25 24 24 25 26 26 26 26 26
35 33 32 32 33 32 30 28 25 22 21 22 23 24 24 23 23 24 25 25 25 26 26 25 25 25 25 24 23 23 24 25 25 25 25 25 24 22 21 21 21 19 18 17 17 17 17 16 14 13 12 12 12 12 11 9 9 11 13 13 12 13 15 16 15 15 16 17 17 18 19 21 23 24 25 26 27 27 27 28 28 29 28 27 26
41 38 36 37 39 39 37 33 30 27 26 26 28 30 30 28 27 27 28 28 27 27 26 26 26 27 28 29 29 28 27 27 28 28 29 29 29 29 27 25 24 24 23 22 21 21 21 20 18 18 18 18 18 18 17 16 15 16 17 17 16 16 17 19 19 19 19 19 20 21 22 23 24 26 28 29 30 30 30 30 31 31 31 31 30
45 43 41 41 43 43 41 38 35 32 30 29 31 33 34 34 33 32 31 31 30 28 28 28 28 29 30 32 33 33 32 31 30 31 31 32 33 33 33 32 31 29 28 27 26 26 26 25 23 23 23 23 23 23 22 22 21 21 22 21 20 19 20 21 23 24 24 25 25 26 26 26 26 27 28 30 31 33 33 33 33 34 34 34 34
48 48 47 46 46 44 43 42 40 37 34 33 34 35 36 36 36 36 35 34 33 32 30 30 31 33 35 35 36 37 36 35 34 34 34 34 34 36 36 37 36 35 34 33 32 31 31 30 30 28 28 28 29 28 28 27 27 27 27 25 24 24 25 25 26 27 29 30 30 30 30 30 30 30 30 31 32 33 34 35 36 37 38 38 37
52 52 50 49 48 46 46 46 44 42 39 39 38 38 36 36 36 38 39 39 38 36 34 34 36 37 39 40 41 41 39 38 38 38 38 37 37 38 39 39 39 39 39 39 38 36 35 34 34 34 34 34 33 33 32 32 32 33 33 31 30 30 30 29 29 30 32 33 34 34 34 34 34 34 34 34 34 35 36 38 39 40 41 41 41
Wind_Direction
65 66 67 68 71 74 75 76 79 82 85 88 90 91 92 91 91 89 87 84 80 77 74 74 76 75 71 66 62 58 56 53 52 48 45 44 43 40 37 32 27 23 21 20 20 18 13 8 5 8 12 8 11 24 31 33 33 28 20 16 17 28 53 77 89 92 93 93 92 91 89 89 91 92 88 84 79 72 17 326 321 317 314 313 312
68 69 69 68 68 71 73 76 79 82 84 85 87 88 89 89 89 89 87 83 79 76 73 72 73 73 70 65 61 58 56 54 51 47 44 43 42 39 35 30 25 22 20 17 17 17 15 13 12 15 15 11 17 29 36 40 37 29 20 19 36 68 88 94 95 94 92 90 88 88 88 89 90 88 84 74 61 40 7 340 328 321 316 312 309
72 73 71 68 65 66 71 74 77 80 82 83 85 87 88 89 90 90 87 83 78 75 73 69 68 67 65 63 59 57 54 52 48 42 36 35 36 35 31 27 23 21 18 15 13 14 15 16 18 20 17 15 22 32 41 45 41 31 23 38 75 94 98 97 95 91 88 86 86 87 85 85 82 78 70 58 38 16 1 350 345 342 338 334 330
75 75 73 70 67 66 68 71 75 78 80 82 84 86 87 87 88 89 87 83 78 72 69 66 62 60 60 59 57 54 50 48 44 39 31 25 25 25 26 26 23 20 19 17 13 13 16 20 25 26 20 21 29 37 45 47 44 37 40 73 97 101 98 95 92 88 85 84 84 83 81 79 75 69 57 41 25 13 6 1 359 357 352 348 347
76 76 75 72 70 70 71 72 74 77 79 81 83 84 85 85 85 85 84 82 77 71 65 61 59 57 55 55 55 52 48 44 41 38 33 27 24 21 23 28 25 21 21 20 16 13 18 24 30 30 27 31 41 48 49 49 48 47 67 96 103 99 96 93 89 86 84 82 81 79 77 73 67 56 43 32 24 20 16 13 9 5 3 4 9
77 77 77 74 73 75 77 76 76 78 80 81 82 82 83 85 84 84 84 81 78 73 65 59 58 56 52 50 49 46 45 42 38 34 31 29 29 26 28 29 26 23 21 22 17 15 20 27 34 36 37 46 56 59 56 54 54 64 90 105 102 97 94 89 86 83 80 79 77 75 71 65 55 44 36 32 30 28 24 20 17 17 21 25 24
80 78 78 77 75 76 79 80 79 79 80 81 82 82 83 84 85 86 86 83 79 73 64 57 56 54 49 45 43 40 39 38 36 32 29 32 34 32 32 30 27 25 26 25 18 18 26 34 41 46 52 62 67 68 64 63 64 79 101 108 102 97 91 86 84 79 77 76 73 70 64 55 47 41 40 39 37 34 30 28 29 31 33 32 28
81 80 80 79 78 78 79 81 81 79 80 81 82 84 85 84 85 85 84 82 77 71 64 57 53 51 48 44 40 38 37 38 37 33 33 38 39 36 35 33 30 31 35 35 30 33 41 47 53 60 67 73 74 73 71 71 74 87 105 109 102 96 90 86 81 76 73 72 69 64 57 50 47 47 47 46 42 39 37 37 37 38 37 34 31
82 82 83 83 82 81 81 81 80 80 80 81 82 83 83 83 83 81 79 75 69 65 61 57 53 49 47 45 42 40 39 39 41 39 37 39 40 38 36 35 32 33 37 40 42 47 53 58 65 72 77 79 78 77 77 78 80 89 102 107 102 95 91 86 78 72 71 69 67 60 54 53 54 55 53 50 46 44 44 44 43 43 41 39 36
85 83 82 82 83 83 82 81 80 81 81 82 81 80 81 83 83 80 74 68 63 61 59 55 49 45 44 44 43 42 40 39 41 41 38 38 38 35 34 34 34 35 39 43 48 54 61 67 74 79 82 83 82 81 81 82 84 88 95 100 98 93 89 83 76 72 70 68 65 61 59 60 61 60 56 53 50 49 48 47 47 46 44 42 39
84 82 79 78 79 82 84 83 80 79 79 78 77 78 80 81 80 77 71 66 64 61 57 51 45 42 43 44 43 42 40 39 40 41 39 38 36 33 32 36 39 42 46 51 57 61 67 74 79 83 85 85 84 84 84 84 84 86 89 91 90 88 84 80 75 73 70 68 68 66 65 66 65 62 59 56 53 52 51 49 48 47 45 43 39
78 78 77 75 75 78 81 82 80 78 77 75 75 75 75 74 73 70 66 63 62 60 57 52 48 46 45 45 43 41 39 39 41 43 42 41 38 36 37 41 46 50 54 59 64 69 73 78 82 85 86 86 85 85 85 84 84 85 85 85 85 83 80 78 76 74 72 72 71 70 69 70 68 65 62 58 55 53 52 51 49 48 46 43 40
71 73 74 74 74 75 77 78 78 78 77 76 74 72 69 66 65 64 62 61 62 61 59 56 52 48 46 46 45 43 42 42 45 46 46 46 45 45 45 48 53 58 62 66 70 74 77 81 83 85 86 86 85 85 85 84 84 84 83 83 82 81 80 79 77 76 74 73 72 72 71 71 69 65 61 57 54 53 52 51 50 48 47 44 42
67 68 70 72 74 75 75 75 76 76 76 75 74 71 67 64 64 66 66 65 64 62 60 58 55 50 49 50 50 49 48 48 49 50 51 52 53 54 55 58 62 65 68 72 74 78 80 82 84 85 85 85 85 85 84 84 84 84 83 83 83 83 82 81 79 76 74 73 72 72 71 70 68 64 59 56 53 53 52 51 50 48 47 45 42
64 66 67 70 72 74 74 73 72 71 73 75 76 73 69 69 70 71 71 70 68 64 62 60 57 56 56 57 57 56 56 56 56 57 57 59 61 62 64 66 69 71 73 76 78 80 82 83 84 84 85 85 85 85 85 85 85 85 85 85 85 85 84 82 79 76 74 73 72 71 70 68 66 63 59 56 54 54 53 52 50 49 47 45 43
61 62 64 66 69 72 73 72 70 70 71 74 77 77 75 75 77 77 75 73 68 65 63 63 62 62 63 64 64 64 64 64 64 65 65 66 68 69 70 72 74 76 78 79 81 82 83 84 85 85 86 86 86 86 86 87 86 87 87 86 86 85 84 82 79 77 74 73 72 71 70 68 66 63 61 59 57 56 55 54 52 50 49 47 46
61 62 62 64 67 69 71 71 71 71 70 73 78 82 82 81 80 78 75 70 66 65 65 66 67 68 69 71 72 72 73 73 73 73 74 74 75 76 77 79 80 81 82 83 84 85 86 87 87 88 88 88 89 89 89 89 88 88 88 87 87 86 85 83 81 79 77 76 75 74 73 71 69 67 65 63 61 60 58 57 55 54 52 51 49
62 63 64 65 66 68 70 70 71 73 74 76 80 82 83 82 79 75 72 68 68 69 69 71 73 75 76 78 80 80 81 81 80 81 81 81 82 82 83 84 85 85 86 87 88 88 89 90 90 91 91 91 91 91 91 91 91 91 91 90 90 89 88 87 85 84 83 81 80 79 77 75 73 71 69 67 65 63 62 60 59 57 55 54 52
63 64 65 66 68 70 71 72 73 75 79 80 79 78 78 78 77 73 72 72 73 73 74 76 79 82 84 86 86 87 87 87 86 86 86 86 86 87 87 87 88 88 89 90 90 91 91 92 92 93 93 93 93 93 93 93 93 93 93 92 92 91 91 90 89 88 86 85 83 82 81 79 77 75 73 71 69 67 65 64 62 60 58 57 55
64 65 66 67 68 70 73 75 77 80 81 80 78 76 75 75 75 74 74 75 77 77 79 81 85 89 92 92 92 92 91 90 90 89 89 88 88 88 89 89 89 90 90 91 91 92 92 92 93 93 93 94 94 94 94 94 93 93 93 92 92 92 91 90 89 88 87 86 85 83 82 81 79 77 76 74 73 71 69 67 65 64 61 59 58
63 64 65 66 68 70 72 76 79 81 81 79 78 78 78 76 74 74 74 76 78 81 84 87 92 96 98 97 96 95 94 93 92 91 91 90 90 89 89 89 90 90 90 91 91 91 92 92 92 92 92 92 92 92 92 92 91 91 90 90 89 89 88 88 86 86 85 84 83 82 81 81 79 78 76 75 74 73 72 70 69 67 65 63 61
61 62 63 65 66 68 70 73 76 78 77 77 78 79 79 77 74 73 74 76 80 85 89 93 99 102 102 100 99 97 96 95 94 93 92 92 91 90 90 90 90 90 90 90 90 90 90 90 90 90 90 90 89 89 89 89 88 88 87 86 86 85 84 83 82 81 80 80 79 79 78 77 76 75 75 74 74 73 72 71 70 69 68 66 64
60 61 61 62 63 65 66 69 71 73 74 76 77 78 78 77 76 76 77 78 82 89 94 100 105 106 104 102 100 99 98 96 95 94 93 92 92 91 91 90 90 90 89 89 89 89 89 88 88 88 87 87 86 86 85 85 85 84 83 83 82 81 80 79 78 77 76 76 75 75 74 73 72 71 71 71 72 72 71 70 69 69 69 68 66
59 59 60 60 61 62 63 65 67 70 72 74 76 77 77 77 76 77 79 82 87 93 98 104 108 108 106 103 102 100 99 97 96 94 93 93 93 93 92 91 91 91 90 89 89 89 88 88 88 87 87 86 85 84 84 83 82 82 81 80 79 78 77 76 76 75 74 73 72 71 70 69 68 67 67 67 68 68 68 67 67 67 67 66 66
59 59 59 59 59 60 61 63 65 67 70 72 74 76 76 76 76 78 82 87 92 97 102 106 110 110 107 104 103 101 100 99 96 95 94 94 94 94 93 93 92 92 91 90 89 89 88 88 88 87 86 85 84 84 83 81 80 80 79 77 76 75 74 73 73 72 72 70 69 68 67 66 66 65 64 64 64 64 64 63 63 63 64 64 64
60 59 58 58 58 58 59 60 62 65 69 71 73 75 75 76 77 80 85 90 95 100 104 108 111 111 108 104 103 102 101 100 98 95 95 95 95 95 94 94 93 93 92 91 90 89 88 87 86 84 83 82 81 80 79 78 77 75 74 73 72 71 70 69 69 68 67 66 65 64 63 63 63 63 62 61 61 60 60 60 60 60 61 62 62
62 60 58 57 56 57 57 58 59 62 65 69 72 74 76 77 79 83 87 91 96 101 104 108 112 112 109 105 103 102 101 100 98 97 96 96 96 96 96 95 95 94 93 91 90 88 86 84 83 81 80 79 78 77 76 74 72 71 69 68 68 67 65 65 64 63 62 61 60 59 58 58 59 59 58 58 58 58 58 58 58 58 58 59 59
63 61 59 58 56 55 56 56 57 58 61 65 69 73 77 80 82 86 90 93 95 100 105 110 113 113 110 106 104 103 102 101 99 99 99 99 99 99 98 98 96 94 92 91 88 86 83 81 80 79 78 77 76 74 72 71 69 67 66 65 64 62 61 60 60 59 58 57 56 55 54 54 55 54 54 54 54 54 54 55 56 56 56 56 56
63 62 60 58 56 54 54 55 56 57 59 62 66 72 78 83 86 89 92 94 96 100 106 112 115 114 112 108 105 103 102 102 101 101 102 103 103 102 101 99 97 94 91 87 85 82 79 77 76 75 74 73 71 70 68 67 66 64 63 62 60 59 57 56 55 54 54 53 52 52 51 51 51 51 50 50 50 50 50 50 52 52 53 54 54
62 62 60 58 56 54 53 52 53 55 57 61 65 71 79 85 88 91 94 96 98 101 107 114 117 117 115 111 107 105 104 103 103 103 104 105 105 104 103 101 97 93 88 83 79 76 75 73 71 70 68 67 66 65 64 63 62 60 59 58 56 55 53 52 51 50 50 49 48 48 48 48 48 48 47 47 47 47 47 47 48 48 49 51 52
59 60 60 58 55 54 52 51 50 52 56 60 65 70 77 84 89 93 97 100 102 106 110 115 119 120 118 115 111 108 106 105 105 105 106 107 107 106 104 101 97 91 84 79 75 73 72 71 69 66 64 62 61 60 59 58 56 55 54 52 51 50 49 48 46 46 45 44 44 44 44 45 45 45 45 45 45 45 45 45 46 46 47 48 49
59 57 57 56 54 53 51 49 47 49 52 58 63 68 73 79 86 93 101 105 107 109 114 117 119 120 119 117 114 111 109 107 107 108 109 111 111 110 108 103 96 89 82 78 76 74 73 70 68 65 62 59 57 55 53 52 51 49 48 47 46 44 43 42 42 41 40 39 39 40 40 41 43 44 44 44 44 44 44 44 45 46 46 47 47
60 58 55 53 53 52 51 48 45 44 47 52 59 66 72 77 83 91 100 108 111 112 114 118 120 121 122 121 120 117 115 115 115 115 115 116 115 114 111 105 98 91 84 79 77 75 73 70 68 64 61 58 55 52 50 48 46 44 42 41 40 39 38 38 38 37 36 35 34 34 35 37 39 42 44 44 45 45 45 45 46 46 46 47 47
60 59 57 54 51 50 50 49 45 42 41 44 50 59 67 75 82 89 96 103 108 111 114 116 119 123 127 129 129 127 125 125 126 127 126 125 124 121 116 109 103 95 88 83 79 76 74 71 68 64 60 57 54 50 47 44 42 39 36 34 33 32 33 33 33 33 33 33 32 32 34 36 39 41 44 45 46 46 47 48 47 47 47 47 47
58 57 56 56 54 50 48 47 47 45 41 39 42 48 56 64 73 83 92 97 102 105 109 114 120 126 133 138 139 138 136 134 134 136 135 134 131 128 123 117 108 98 90 86 82 78 73 70 68 64 59 55 51 46 42 39 35 32 29 27 26 26 28 28 29 29 30 32 34 36 39 42 44 45 46 46 46 47 48 49 49 48 48 47 46
37 40 43 48 54 53 48 46 46 47 44 38 36 39 44 51 60 71 80 87 92 99 106 115 122 128 136 143 149 151 153 151 148 147 146 144 143 140 136 132 121 107 96 89 85 80 74 67 63 58 53 48 44 39 34 29 26 24 22 21 21 22 24 26 26 27 30 35 42 46 48 50 51 51 51 51 51 51 50 50 49 49 48 47 46
339 354 6 15 28 44 51 49 46 45 44 40 36 33 32 37 48 62 72 77 79 86 95 104 111 120 131 146 161 174 181 183 178 172 169 167 167 168 168 163 157 147 131 109 95 85 72 59 50 44 39 34 29 24 19 16 15 14 14 15 17 19 22 25 26 28 34 43 51 54 54 54 55 55 55 54 54 54 54 53 52 51 49 48 47
305 320 329 336 346 2 24 44 44 37 34 32 33 32 26 23 26 39 57 65 64 65 67 68 73 85 107 134 170 196 207 210 206 202 199 197 193 192 193 192 191 190 191 183 173 156 61 29 23 17 13 11 10 7 6 6 7 8 8 10 15 18 21 24 28 32 40 47 52 53 53 53 54 54 54 54 53 53 53 53 53 52 52 51 50
281 292 303 309 315 319 320 325 334 344 357 2 4 14 17 13 7 7 20 35 39 42 49 46 36 33 35 42 47 239 239 238 236 232 226 220 217 215 215 213 213 215 217 219 220 239 282 320 337 343 348 354 356 357 359 1 5 8 10 13 17 20 23 27 32 39 45 47 47 48 49 49 50 50 50 50 49 48 48 48 49 49 50 50 50
267 270 277 282 286 289 292 289 282 278 279 291 304 311 306 307 316 322 333 358 4 2 16 28 22 14 8 1 352 337 320 297 267 256 250 244 237 235 234 233 234 236 241 244 250 266 287 306 321 335 348 356 359 1 3 8 14 21 24 27 30 30 33 40 43 44 48 49 48 48 48 48 47 46 45 44 43 43 44 45 45 45 45 44 44
261 264 266 269 270 272 275 273 266 265 266 266 271 276 279 281 284 286 288 293 305 316 325 334 339 340 344 345 342 335 329 322 305 281 267 260 256 251 248 247 248 251 255 260 266 274 284 293 306 328 352 10 19 23 25 27 32 37 38 40 44 42 41 46 50 49 49 51 51 50 50 47 42 38 37 36 36 37 39 41 42 43 43 43 42
260 263 266 271 270 265 264 264 262 264 270 273 274 274 273 276 279 279 279 279 277 278 282 289 297 303 306 309 313 317 321 320 315 307 295 281 270 266 263 262 261 263 266 268 271 272 270 263 256 274 20 44 48 44 43 41 40 41 40 39 41 40 37 39 44 47 50 50 49 47 46 40 32 26 24 23 24 26 28 30 32 34 36 38 38
261 263 266 270 270 264 259 259 259 264 273 280 283 283 280 280 279 277 275 276 276 274 271 273 277 282 288 291 291 291 293 299 306 309 309 303 292 282 276 271 269 268 267 267 265 260 251 230 201 173 116 87 67 50 42 36 31 30 31 31 33 32 30 28 28 31 36 36 33 30 27 21 15 12 11 11 12 15 17 19 20 21 22 23 25
263 266 266 267 265 259 254 252 253 259 267 271 275 280 283 285 284 282 280 279 277 273 268 268 269 271 274 277 280 281 281 282 287 296 305 308 304 298 289 281 274 269 266 261 255 252 245 225 198 175 143 96 41 18 13 14 13 10 10 14 17 17 18 16 11 10 12 12 9 5 1 358 355 356 357 360 3 5 7 9 11 11 12 12 12
263 265 264 265 263 256 249 246 248 255 264 266 267 272 282 288 288 287 287 286 283 278 271 266 266 266 267 268 271 273 274 275 277 281 289 297 301 299 294 287 282 275 269 261 251 243 236 223 210 199 195 260 332 341 345 345 346 345 344 346 349 353 359 358 352 349 349 349 347 345 344 343 343 344 347 351 354 357 359 0 2 3 4 4 4
261 262 260 260 260 258 253 248 248 255 265 267 265 269 281 291 292 290 289 287 284 281 276 270 266 263 263 264 266 269 270 270 270 272 277 282 287 291 291 287 281 275 268 261 253 243 232 225 224 228 238 266 291 307 319 322 319 319 322 325 326 329 334 335 332 330 330 329 328 327 329 331 335 337 339 342 345 348 350 351 352 354 355 356 356
257 257 257 256 256 258 257 253 253 259 267 269 267 269 278 288 291 289 289 288 284 281 278 273 268 264 262 262 263 265 268 268 267 268 270 273 276 280 282 283 280 275 269 263 258 253 244 235 237 244 253 265 278 288 294 296 297 301 305 308 309 311 315 316 314 313 315 315 315 316 317 320 325 329 331 334 336 338 340 341 341 341 342 342 344
258 256 259 259 257 257 257 255 254 257 265 272 274 275 279 285 287 288 288 286 283 281 280 278 275 271 268 266 265 264 263 264 265 266 267 268 270 272 274 275 275 274 271 267 262 260 255 248 246 251 258 264 271 278 282 283 284 289 294 298 299 299 301 303 303 305 307 308 309 310 312 314 317 320 323 327 329 330 331 331 331 329 329 330 333
257 253 254 254 254 255 256 255 254 257 264 273 277 279 282 284 285 287 288 286 284 282 282 281 279 278 276 274 273 271 266 263 261 263 264 265 266 267 269 270 270 270 270 269 266 264 261 258 257 257 259 264 269 273 276 276 277 280 283 287 290 292 294 295 297 299 302 304 305 307 309 311 313 313 315 319 321 323 323 324 323 321 320 322 325
252 250 253 254 254 254 255 255 256 259 265 270 274 277 281 284 285 286 286 286 285 283 281 282 284 285 283 281 280 277 273 268 265 263 263 263 263 264 265 266 268 268 269 269 269 267 265 262 261 260 261 264 269 271 273 273 273 275 277 278 279 283 287 289 291 293 297 300 303 305 306 307 309 310 310 311 314 315 316 316 316 314 315 316 317
250 250 254 256 254 253 253 254 256 259 261 265 270 275 279 281 283 282 282 283 285 283 281 283 287 286 283 282 282 279 274 272 271 268 265 263 263 263 263 264 265 267 268 268 268 268 267 265 263 263 263 264 267 269 270 271 271 273 275 275 274 276 279 282 283 285 289 293 297 300 301 302 303 304 305 306 307 309 311 312 311 309 310 311 311
Height
10938 10938 10938 10937 10937 10937 10936 10936 10935 10934 10934 10933 10933 10933 10933 10933 10933 10933 10934 10934 10934 10934 10934 10934 10934 10933 10932 10932 10931 10931 10931 10930 10929 10927 10927 10926 10925 10923 10922 10920 10919 10917 10916 10914 10913 10912 10910 10909 10908 10907 10906 10904 10903 10901 10900 10899 10898 10897 10896 10894 10893 10892 10891 10891 10890 10891 10891 10891 10892 10893 10893 10893 10893 10893 10893 10892 10892 10891 10891 10890 10888 10887 10886 10884 10882
10940 10940 10940 10940 10939 10939 10938 10938 10937 10936 10936 10935 10935 10935 10935 10935 10936 10936 10936 10937 10937 10937 10937 10937 10936 10935 10934 10934 10934 10933 10932 10931 10929 10928 10928 10926 10925 10924 10922 10921 10919 10918 10916 10915 10913 10912 10911 10909 10908 10907 10906 10905 10903 10901 10900 10899 10898 10897 10896 10895 10894 10893 10892 10892 10892 10892 10892 10893 10893 10894 10894 10894 10894 10894 10894 10893 10893 10892 10891 10890 10889 10888 10886 10885 10883
10942 10942 10942 10942 10941 10941 10940 10940 10939 10938 10938 10938 10937 10937 10938 10938 10938 10938 10938 10939 10939 10939 10940 10940 10939 10937 10937 10936 10935 10934 10933 10932 10930 10930 10928 10927 10925 10924 10923 10921 10920 10918 10917 10915 10914 10913 10911 10910 10908 10907 10906 10905 10903 10902 10901 10900 10899 10898 10897 10896 10895 10894 10894 10894 10894 10894 10894 10894 10895 10895 10895 10896 10895 10895 10894 10894 10893 10892 10891 10889 10888 10887 10885 10883 10881
10944 10944 10944 10944 10943 10943 10942 10942 10941 10941 10940 10940 10940 10940 10940 10941 10941 10941 10941 10941 10942 10942 10942 10942 10941 10940 10939 10938 10936 10935 10934 10932 10931 10931 10929 10928 10926 10924 10923 10921 10920 10918 10917 10916 10914 10913 10911 10910 10909 10907 10906 10905 10904 10903 10902 10900 10899 10898 10897 10897 10896 10896 10896 10896 10896 10896 10896 10896 10896 10896 10897 10897 10896 10896 10895 10894 10893 10892 10891 10889 10887 10886 10884 10881 10879
10946 10946 10946 10945 10945 10944 10944 10944 10943 10943 10943 10943 10943 10943 10943 10943 10943 10943 10943 10943 10943 10944 10944 10944 10943 10942 10940 10939 10937 10936 10935 10934 10933 10931 10930 10928 10927 10925 10923 10922 10920 10919 10917 10916 10915 10913 10911 10910 10909 10908 10907 10905 10904 10903 10902 10901 10900 10899 10898 10898 10898 10898 10898 10898 10898 10898 10898 10898 10898 10898 10898 10898 10897 10897 10896 10895 10893 10892 10891 10889 10887 10885 10883 10881 10879
10947 10947 10947 10947 10947 10946 10946 10946 10946 10946 10945 10945 10945 10945 10945 10946 10946 10946 10946 10946 10946 10946 10946 10945 10945 10943 10941 10940 10938 10937 10936 10935 10934 10932 10931 10929 10927 10925 10924 10922 10921 10919 10917 10916 10915 10913 10912 10910 10909 10908 10907 10906 10905 10904 10903 10902 10900 10900 10899 10900 10901 10901 10901 10901 10901 10901 10900 10900 10900 10900 10899 10899 10898 10897 10896 10895 10894 10892 10891 10889 10887 10885 10883 10881 10879
10949 10949 10949 10949 10949 10949 10948 10948 10948 10948 10948 10948 10948 10948 10948 10948 10948 10948 10949 10948 10948 10948 10947 10947 10946 10944 10943 10941 10940 10939 10937 10936 10934 10933 10932 10930 10928 10926 10924 10923 10921 10919 10918 10916 10915 10913 10911 10910 10909 10908 10907 10906 10905 10904 10903 10902 10901 10901 10901 10902 10902 10903 10903 10903 10903 10903 10902 10902 10901 10901 10901 10900 10899 10898 10897 10896 10895 10893 10891 10889 10887 10884 10883 10881 10879
10951 10951 10952 10952 10951 10951 10951 10951 10951 10951 10950 10951 10951 10951 10951 10951 10951 10951 10951 10951 10950 10949 10948 10948 10947 10946 10944 10943 10941 10940 10939 10937 10935 10934 10933 10931 10929 10927 10925 10923 10921 10919 10918 10916 10914 10913 10912 10910 10909 10908 10908 10907 10906 10905 10904 10903 10903 10903 10903 10904 10904 10905 10905 10905 10905 10905 10904 10904 10903 10903 10902 10901 10900 10899 10898 10897 10896 10894 10892 10889 10887 10885 10883 10882 10880
10953 10953 10954 10954 10954 10954 10953 10953 10953 10953 10953 10953 10953 10953 10953 10953 10953 10953 10953 10952 10952 10951 10950 10949 10949 10947 10946 10944 10943 10942 10940 10938 10937 10935 10934 10932 10930 10928 10925 10923 10922 10920 10918 10916 10914 10913 10912 10911 10910 10909 10908 10908 10907 10906 10906 10905 10905 10905 10905 10906 10906 10907 10907 10907 10907 10907 10906 10906 10905 10904 10904 10903 10902 10901 10899 10898 10897 10895 10893 10890 10888 10886 10884 10883 10881
10956 10956 10956 10956 10956 10956 10956 10956 10955 10955 10955 10955 10955 10955 10955 10955 10955 10955 10955 10954 10954 10953 10952 10951 10951 10949 10948 10946 10945 10943 10941 10940 10938 10937 10935 10933 10931 10929 10926 10924 10922 10920 10918 10917 10915 10914 10913 10912 10911 10910 10910 10909 10908 10908 10907 10907 10907 10907 10907 10908 10908 10909 10909 10909 10909 10909 10908 10908 10907 10906 10906 10905 10904 10902 10901 10900 10898 10896 10894 10892 10889 10887 10886 10884 10882
10959 10958 10958 10958 10958 10958 10958 10958 10958 10958 10957 10957 10957 10957 10957 10957 10957 10957 10956 10956 10956 10955 10954 10953 10952 10951 10950 10948 10947 10945 10943 10941 10939 10938 10936 10934 10932 10930 10927 10925 10923 10921 10919 10918 10916 10915 10914 10913 10912 10912 10911 10911 10910 10910 10909 10909 10909 10909 10910 10910 10910 10911 10911 10911 10911 10911 10910 10910 10909 10908 10908 10907 10906 10904 10903 10902 10900 10898 10896 10893 10891 10889 10887 10885 10883
10961 10960 10960 10960 10960 10960 10960 10960 10960 10960 10960 10959 10959 10959 10959 10959 10959 10958 10958 10958 10958 10957 10956 10954 10954 10953 10951 10950 10948 10946 10945 10943 10940 10938 10936 10935 10933 10931 10929 10927 10925 10923 10921 10919 10918 10917 10916 10915 10914 10913 10913 10913 10912 10912 10912 10912 10911 10912 10912 10912 10913 10913 10913 10913 10913 10913 10913 10912 10911 10910 10910 10909 10908 10907 10906 10904 10903 10900 10898 10895 10893 10891 10889 10887 10885
10963 10962 10962 10962 10961 10961 10961 10961 10961 10961 10961 10961 10961 10961 10961 10961 10961 10960 10961 10961 10960 10959 10957 10956 10955 10955 10953 10952 10950 10948 10946 10944 10942 10939 10937 10936 10934 10932 10930 10928 10926 10925 10923 10922 10920 10919 10918 10917 10917 10916 10915 10915 10915 10915 10915 10914 10914 10914 10915 10915 10915 10915 10916 10916 10916 10915 10915 10914 10913 10912 10913 10911 10910 10909 10908 10907 10905 10903 10900 10897 10895 10893 10891 10889 10886
10964 10964 10964 10963 10963 10963 10963 10963 10963 10963 10963 10963 10963 10962 10963 10963 10963 10962 10963 10962 10962 10961 10960 10958 10957 10957 10955 10954 10952 10950 10948 10946 10944 10941 10939 10937 10935 10934 10932 10930 10928 10927 10926 10924 10923 10922 10921 10920 10919 10919 10918 10918 10918 10918 10918 10917 10917 10917 10917 10918 10918 10918 10918 10918 10918 10918 10917 10916 10915 10915 10915 10914 10912 10911 10910 10909 10907 10905 10902 10900 10897 10895 10893 10891 10888
10966 10966 10965 10965 10965 10965 10965 10965 10965 10964 10964 10964 10964 10964 10964 10965 10965 10964 10964 10964 10964 10963 10962 10960 10959 10959 10957 10956 10954 10952 10950 10948 10946 10944 10942 10940 10938 10936 10934 10933 10931 10930 10929 10927 10926 10925 10924 10923 10922 10922 10921 10921 10921 10921 10921 10921 10921 10920 10920 10921 10920 10920 10920 10920 10920 10920 10919 10918 10917 10918 10917 10916 10914 10913 10912 10911 10909 10907 10904 10902 10900 10898 10895 10893 10891
10969 10968 10967 10967 10967 10966 10966 10967 10966 10966 10966 10966 10966 10966 10967 10967 10967 10967 10967 10966 10966 10965 10964 10963 10961 10961 10960 10958 10957 10955 10953 10951 10949 10947 10945 10943 10941 10939 10938 10936 10935 10933 10932 10931 10930 10929 10928 10927 10926 10925 10925 10925 10925 10924 10924 10924 10924 10924 10924 10924 10923 10923 10923 10923 10922 10922 10922 10921 10920 10920 10920 10918 10916 10915 10914 10913 10911 10909 10906 10904 10902 10900 10898 10896 10893
10972 10971 10970 10969 10969 10969 10969 10969 10969 10969 10969 10969 10969 10969 10970 10970 10970 10969 10969 10969 10968 10967 10966 10965 10964 10963 10963 10961 10960 10959 10957 10955 10953 10952 10950 10947 10945 10944 10942 10941 10939 10937 10936 10935 10934 10933 10932 10931 10930 10930 10929 10929 10928 10928 10928 10927 10927 10927 10927 10927 10926 10926 10926 10926 10925 10925 10924 10924 10923 10924 10922 10920 10919 10918 10917 10915 10913 10911 10909 10906 10905 10903 10901 10899 10896
10975 10974 10973 10972 10972 10972 10971 10971 10971 10971 10972 10972 10972 10972 10972 10973 10973 10972 10972 10971 10970 10969 10968 10967 10967 10966 10966 10965 10964 10963 10961 10959 10958 10956 10954 10952 10950 10949 10948 10946 10945 10943 10941 10940 10939 10938 10937 10936 10935 10934 10934 10933 10933 10932 10931 10931 10931 10930 10930 10930 10930 10929 10929 10928 10927 10927 10927 10927 10927 10927 10925 10922 10921 10920 10920 10918 10916 10913 10911 10909 10907 10906 10904 10901 10899
10979 10978 10977 10976 10975 10974 10974 10974 10974 10974 10975 10975 10975 10975 10975 10975 10975 10975 10974 10973 10973 10971 10970 10970 10970 10970 10969 10969 10968 10967 10965 10964 10962 10961 10959 10958 10956 10955 10953 10952 10951 10949 10947 10946 10945 10944 10943 10942 10940 10940 10939 10938 10937 10937 10936 10935 10935 10935 10934 10934 10934 10933 10933 10932 10931 10931 10930 10930 10930 10930 10928 10925 10924 10923 10922 10921 10918 10916 10914 10912 10910 10908 10907 10904 10902
10982 10981 10980 10979 10978 10978 10977 10977 10977 10977 10978 10978 10978 10978 10978 10978 10978 10977 10977 10976 10975 10974 10973 10973 10973 10973 10973 10973 10972 10971 10969 10968 10967 10965 10964 10963 10962 10961 10959 10958 10957 10956 10954 10952 10951 10951 10949 10948 10947 10946 10945 10944 10944 10943 10942 10941 10940 10940 10940 10939 10939 10938 10937 10937 10936 10935 10934 10934 10934 10934 10931 10929 10928 10927 10926 10924 10921 10919 10917 10915 10913 10911 10910 10908 10905
10985 10985 10984 10982 10982 10981 10980 10980 10980 10980 10980 10981 10981 10980 10980 10980 10980 10980 10979 10978 10978 10977 10977 10976 10976 10976 10976 10976 10975 10974 10973 10972 10971 10970 10969 10969 10968 10967 10965 10964 10963 10962 10961 10959 10958 10957 10956 10955 10954 10952 10951 10951 10950 10949 10948 10947 10946 10946 10945 10945 10945 10944 10943 10942 10941 10940 10939 10939 10939 10939 10936 10933 10932 10931 10930 10928 10925 10923 10921 10919 10917 10914 10912 10911 10909
10988 10987 10986 10986 10985 10984 10984 10983 10983 10983 10983 10983 10983 10983 10983 10983 10982 10982 10981 10981 10980 10980 10980 10980 10980 10980 10979 10979 10978 10978 10977 10976 10975 10974 10974 10973 10973 10972 10971 10970 10969 10968 10967 10966 10965 10964 10963 10961 10960 10959 10958 10958 10957 10956 10954 10953 10952 10952 10951 10951 10951 10950 10949 10948 10946 10945 10944 10944 10944 10944 10941 10938 10937 10935 10934 10932 10930 10927 10925 10923 10920 10918 10916 10914 10913
10991 10990 10989 10988 10988 10987 10987 10986 10986 10985 10985 10985 10985 10985 10985 10985 10985 10984 10984 10983 10983 10983 10983 10983 10983 10983 10983 10982 10982 10981 10981 10980 10979 10979 10978 10978 10977 10977 10976 10975 10974 10974 10973 10972 10971 10970 10969 10968 10967 10966 10965 10964 10962 10961 10960 10959 10958 10957 10957 10957 10956 10955 10954 10952 10951 10950 10949 10948 10949 10949 10946 10944 10942 10940 10938 10937 10934 10932 10930 10928 10925 10922 10920 10918 10917
10995 10994 10993 10992 10991 10990 10989 10989 10988 10988 10988 10987 10987 10987 10987 10987 10987 10986 10986 10986 10986 10985 10985 10986 10986 10986 10986 10985 10985 10985 10984 10984 10983 10983 10982 10982 10981 10981 10981 10980 10980 10979 10978 10977 10976 10975 10974 10973 10972 10971 10970 10968 10967 10966 10965 10964 10963 10962 10962 10962 10961 10959 10957 10957 10955 10954 10953 10953 10954 10953 10951 10948 10946 10944 10943 10941 10939 10937 10935 10933 10930 10927 10925 10923 10922
10998 10997 10996 10995 10994 10993 10992 10992 10991 10991 10990 10990 10990 10990 10990 10989 10989 10989 10989 10988 10988 10988 10988 10988 10989 10989 10989 10989 10989 10988 10988 10987 10987 10987 10987 10986 10986 10985 10985 10985 10984 10983 10982 10981 10981 10980 10979 10978 10977 10976 10975 10973 10971 10970 10970 10969 10968 10967 10967 10966 10964 10962 10961 10961 10959 10958 10957 10957 10957 10956 10954 10952 10950 10948 10947 10946 10944 10942 10940 10937 10935 10933 10931 10929 10928
11002 11001 11000 10999 10997 10996 10995 10995 10994 10993 10993 10993 10992 10992 10992 10992 10992 10992 10991 10991 10991 10991 10991 10991 10992 10992 10992 10992 10992 10991 10991 10991 10991 10991 10990 10990 10990 10990 10989 10989 10988 10987 10986 10985 10984 10984 10983 10982 10981 10980 10978 10977 10976 10975 10974 10973 10972 10972 10971 10969 10967 10966 10965 10964 10963 10962 10962 10961 10961 10959 10958 10956 10953 10952 10951 10950 10948 10946 10944 10942 10940 10938 10936 10935 10933
11004 11004 11003 11002 11001 10999 10998 10997 10997 10996 10996 10995 10995 10995 10994 10994 10994 10994 10994 10994 10994 10994 10994 10994 10995 10995 10995 10995 10995 10995 10994 10994 10994 10994 10994 10994 10994 10994 10994 10993 10992 10991 10990 10989 10988 10987 10987 10986 10985 10983 10982 10980 10979 10979 10978 10977 10976 10975 10974 10972 10971 10970 10969 10968 10967 10966 10966 10965 10964 10963 10961 10959 10957 10955 10954 10953 10952 10950 10948 10946 10945 10943 10941 10940 10938
11007 11006 11005 11004 11003 11002 11001 11000 11000 10999 10998 10998 10997 10997 10997 10997 10997 10997 10997 10997 10997 10997 10997 10997 10998 10998 10998 10998 10998 10998 10998 10997 10997 10997 10997 10997 10997 10997 10997 10996 10996 10995 10994 10993 10992 10991 10990 10989 10988 10987 10985 10984 10983 10982 10981 10980 10979 10978 10977 10975 10975 10974 10973 10972 10971 10970 10969 10968 10967 10966 10965 10963 10960 10959 10958 10956 10955 10953 10952 10950 10949 10947 10946 10944 10943
11009 11009 11008 11007 11006 11005 11004 11003 11002 11002 11001 11000 11000 11000 11000 10999 10999 10999 11000 11000 11000 11000 11000 11000 11000 11001 11001 11001 11000 11001 11001 11001 11001 11000 11000 11000 11000 11000 10999 10999 10999 10998 10997 10996 10995 10994 10993 10992 10991 10990 10989 10988 10987 10986 10985 10984 10983 10981 10980 10979 10979 10978 10977 10976 10975 10974 10973 10972 10971 10969 10968 10966 10964 10962 10961 10960 10958 10956 10955 10954 10952 10951 10950 10948 10947
11012 11011 11010 11010 11009 11008 11007 11006 11005 11004 11004 11003 11003 11002 11002 11002 11002 11002 11002 11002 11002 11002 11002 11002 11003 11003 11003 11003 11003 11003 11003 11004 11003 11003 11003 11003 11002 11002 11002 11001 11001 11001 11000 10999 10999 10998 10997 10996 10995 10994 10993 10992 10991 10990 10989 10987 10986 10985 10984 10983 10982 10981 10980 10979 10978 10977 10976 10975 10974 10973 10971 10969 10967 10966 10964 10963 10961 10959 10958 10957 10955 10954 10953 10952 10951
11014 11013 11013 11012 11011 11010 11009 11009 11008 11007 11006 11005 11005 11005 11005 11004 11004 11004 11004 11004 11004 11004 11004 11004 11004 11005 11005 11005 11005 11006 11006 11006 11006 11006 11005 11005 11005 11005 11004 11004 11004 11003 11002 11002 11002 11001 11000 10999 10998 10997 10996 10995 10994 10993 10992 10991 10989 10988 10987 10987 10986 10985 10984 10983 10982 10981 10979 10978 10977 10975 10974 10972 10970 10969 10967 10966 10964 10962 10961 10960 10958 10957 10957 10956 10955
11016 11016 11015 11014 11013 11013 11012 11011 11010 11009 11009 11008 11007 11007 11007 11006 11006 11006 11006 11006 11006 11006 11006 11006 11006 11007 11007 11007 11008 11008 11008 11008 11008 11008 11008 11007 11007 11007 11006 11006 11005 11005 11004 11004 11004 11003 11002 11001 11001 11000 10999 10998 10997 10996 10995 10993 10992 10992 10991 10990 10989 10988 10987 10986 10985 10984 10982 10981 10980 10978 10977 10975 10973 10971 10970 10969 10967 10965 10964 10963 10961 10960 10959 10958 10958
11017 11017 11017 11016 11015 11015 11014 11013 11013 11012 11011 11011 11010 11009 11009 11008 11008 11008 11008 11008 11008 11008 11008 11008 11008 11009 11009 11009 11009 11010 11010 11010 11010 11010 11010 11009 11009 11008 11007 11007 11006 11006 11006 11005 11005 11004 11004 11003 11003 11002 11001 11000 10999 10998 10997 10996 10995 10995 10994 10993 10992 10991 10990 10989 10987 10986 10985 10984 10982 10981 10979 10977 10976 10974 10972 10971 10969 10968 10967 10966 10964 10963 10962 10961 10960
11018 11018 11018 11017 11017 11017 11016 11015 11015 11014 11014 11013 11012 11012 11011 11011 11010 11010 11010 11010 11010 11010 11010 11011 11011 11011 11011 11011 11011 11011 11011 11011 11011 11011 11011 11010 11010 11009 11009 11008 11008 11007 11007 11006 11006 11006 11005 11005 11004 11003 11003 11001 11000 11000 10999 10998 10998 10997 10996 10995 10994 10993 10992 10991 10990 10988 10987 10986 10985 10983 10982 10980 10978 10977 10975 10973 10972 10970 10969 10968 10967 10966 10964 10964 10963
11018 11018 11018 11018 11018 11018 11018 11017 11017 11017 11016 11015 11014 11014 11013 11012 11012 11012 11011 11011 11012 11012 11012 11013 11012 11012 11012 11012 11012 11012 11012 11012 11012 11012 11012 11011 11011 11010 11010 11009 11009 11009 11008 11008 11007 11007 11007 11006 11005 11004 11004 11003 11002 11001 11001 11000 11000 10999 10998 10997 10996 10995 10994 10993 10991 10990 10989 10988 10987 10986 10984 10982 10981 10979 10977 10976 10975 10973 10972 10971 10969 10968 10967 10966 10965
11019 11019 11019 11019 11019 11019 11019 11019 11019 11018 11018 11017 11016 11016 11015 11014 11014 11014 11014 11014 11014 11014 11013 11013 11013 11013 11013 11013 11013 11013 11013 11013 11013 11013 11013 11013 11012 11012 11011 11011 11010 11010 11010 11009 11009 11008 11008 11007 11007 11006 11005 11004 11004 11003 11002 11002 11001 11000 11000 10999 10997 10996 10996 10995 10993 10992 10991 10990 10989 10988 10986 10985 10983 10981 10980 10979 10978 10976 10975 10973 10972 10971 10970 10969 10968
11019 11019 11019 11019 11019 11019 11019 11020 11020 11020 11019 11019 11018 11018 11017 11016 11016 11016 11016 11016 11016 11015 11015 11014 11014 11014 11014 11014 11014 11013 11013 11013 11013 11013 11014 11013 11013 11013 11012 11012 11012 11011 11011 11010 11010 11009 11009 11008 11008 11007 11006 11006 11005 11004 11004 11003 11002 11001 11001 11000 10999 10998 10997 10996 10995 10994 10993 10992 10991 10989 10988 10987 10985 10984 10982 10981 10980 10979 10978 10976 10975 10974 10973 10972 10971
11019 11019 11019 11019 11019 11019 11020 11020 11020 11020 11020 11020 11020 11019 11019 11018 11017 11017 11017 11017 11017 11017 11016 11016 11016 11015 11015 11014 11014 11014 11013 11013 11013 11014 11014 11014 11013 11013 11013 11013 11012 11012 11011 11011 11011 11010 11010 11009 11009 11008 11008 11007 11006 11005 11004 11004 11003 11002 11001 11000 11000 10999 10998 10997 10996 10995 10994 10993 10992 10991 10990 10989 10987 10986 10985 10983 10982 10981 10980 10979 10978 10977 10976 10975 10973
11018 11019 11019 11019 11019 11019 11019 11019 11020 11020 11020 11020 11020 11020 11020 11019 11018 11018 11018 11018 11018 11018 11017 11017 11017 11016 11016 11015 11015 11014 11014 11014 11014 11013 11013 11013 11013 11013 11013 11012 11012 11012 11012 11011 11011 11011 11010 11010 11009 11008 11008 11007 11006 11005 11005 11004 11003 11002 11001 11001 11000 11000 10999 10998 10997 10996 10995 10994 10993 10992 10991 10990 10989 10988 10987 10985 10984 10983 10982 10981 10980 10979 10978 10977 10976
11017 11017 11018 11018 11018 11018 11018 11018 11018 11019 11019 11019 11020 11020 11020 11019 11019 11018 11018 11019 11019 11018 11018 11017 11017 11016 11016 11015 11015 11015 11014 11014 11014 11013 11013 11013 11012 11012 11012 11012 11012 11011 11011 11011 11011 11010 11010 11010 11009 11008 11008 11007 11006 11006 11005 11004 11003 11003 11002 11001 11001 11000 11000 10999 10998 10997 10996 10995 10994 10993 10992 10990 10990 10989 10988 10987 10986 10985 10984 10983 10982 10981 10980 10979 10978
11015 11015 11016 11017 11017 11017 11016 11016 11017 11017 11017 11017 11018 11018 11019 11019 11019 11018 11018 11018 11019 11019 11018 11018 11017 11017 11016 11016 11015 11015 11014 11014 11014 11013 11013 11012 11012 11012 11012 11012 11011 11011 11010 11010 11010 11010 11009 11009 11008 11008 11007 11007 11007 11006 11005 11004 11004 11003 11003 11002 11002 11001 11000 10999 10999 10998 10997 10996 10995 10994 10992 10991 10990 10990 10989 10988 10987 10986 10985 10984 10983 10982 10981 10980 10979
11013 11014 11014 11015 11015 11015 11014 11014 11014 11014 11015 11015 11016 11017 11017 11017 11018 11018 11017 11018 11018 11018 11018 11017 11017 11017 11016 11016 11015 11014 11014 11013 11013 11013 11012 11012 11012 11011 11011 11011 11010 11010 11009 11009 11009 11009 11008 11008 11007 11007 11007 11007 11007 11006 11005 11005 11004 11003 11003 11002 11002 11001 11000 10999 10999 10998 10997 10996 10995 10994 10993 10992 10991 10991 10990 10989 10989 10988 10986 10985 10984 10983 10983 10982 10981
11010 11011 11012 11012 11012 11012 11012 11012 11012 11012 11013 11013 11014 11014 11015 11016 11016 11016 11016 11016 11017 11018 11017 11017 11016 11016 11015 11015 11014 11014 11013 11013 11012 11012 11011 11011 11011 11011 11011 11010 11010 11009 11008 11008 11008 11008 11007 11007 11006 11006 11006 11006 11006 11005 11005 11004 11004 11003 11003 11002 11002 11001 11000 10999 10998 10998 10997 10996 10995 10994 10993 10993 10992 10991 10990 10990 10989 10988 10987 10986 10985 10984 10984 10983 10982
11007 11008 11009 11009 11010 11010 11010 11010 11010 11010 11011 11011 11012 11012 11013 11013 11014 11014 11015 11015 11015 11016 11016 11016 11016 11015 11015 11014 11014 11013 11013 11012 11011 11011 11011 11010 11010 11010 11010 11009 11009 11008 11008 11007 11007 11006 11006 11005 11005 11005 11005 11004 11004 11004 11004 11004 11003 11002 11002 11001 11001 11000 11000 10998 10997 10997 10996 10996 10995 10994 10993 10993 10992 10991 10991 10990 10989 10989 10988 10987 10986 10985 10984 10983 10983
11004 11005 11006 11006 11006 11006 11006 11007 11007 11008 11008 11009 11009 11010 11010 11011 11012 11012 11013 11013 11013 11013 11014 11014 11014 11014 11013 11013 11012 11012 11011 11011 11010 11010 11009 11009 11009 11009 11008 11008 11007 11007 11006 11006 11005 11005 11004 11004 11004 11003 11003 11003 11002 11002 11002 11002 11002 11001 11000 11000 11000 10999 10999 10998 10997 10996 10996 10995 10995 10994 10993 10992 10992 10991 10990 10990 10989 10989 10988 10987 10986 10986 10985 10984 10983
11001 11002 11002 11003 11003 11003 11003 11004 11004 11005 11006 11006 11006 11007 11007 11008 11009 11010 11010 11010 11010 11010 11011 11011 11012 11012 11012 11011 11011 11010 11010 11010 11009 11008 11008 11008 11008 11007 11007 11007 11006 11006 11005 11005 11004 11003 11003 11002 11002 11002 11001 11001 11001 11000 11000 11000 11000 10999 10999 10998 10998 10998 10997 10997 10996 10996 10995 10994 10994 10993 10992 10991 10991 10990 10989 10989 10988 10988 10987 10987 10986 10985 10984 10983 10982
10998 10998 10998 10999 10998 10998 10999 11000 11000 11001 11002 11003 11003 11003 11004 11005 11006 11006 11007 11007 11007 11007 11007 11008 11008 11009 11009 11009 11009 11008 11008 11007 11007 11007 11006 11006 11005 11005 11005 11005 11004 11004 11004 11003 11003 11002 11001 11001 11000 11000 10999 10999 10999 10998 10998 10998 10997 10997 10996 10996 10996 10996 10995 10995 10995 10994 10994 10993 10992 10991 10990 10990 10989 10988 10988 10987 10987 10986 10986 10985 10984 10983 10983 10982 10981
10996 10996 10997 10995 10993 10992 10992 10994 10995 10997 10998 10999 10999 10999 11001 11002 11002 11003 11003 11003 11003 11003 11004 11004 11005 11005 11006 11005 11005 11005 11005 11005 11004 11004 11004 11003 11003 11003 11002 11002 11002 11002 11001 11001 11001 11000 10999 10998 10998 10997 10997 10996 10996 10996 10996 10995 10995 10994 10994 10993 10993 10993 10993 10992 10992 10991 10991 10991 10990 10989 10988 10988 10987 10986 10985 10985 10984 10984 10984 10983 10982 10981 10980 10979 10979
10991 10992 10992 10989 10985 10985 10987 10988 10989 10991 10993 10995 10995 10996 10997 10998 10998 10999 11000 10999 10999 11000 11001 11001 11001 11002 11002 11002 11001 11001 11001 11001 11001 11001 11000 11000 10999 10999 10999 10998 10998 10998 10998 10998 10998 10997 10997 10996 10995 10995 10994 10993 10993 10993 10993 10992 10992 10991 10990 10990 10990 10990 10990 10989 10988 10988 10987 10987 10987 10986 10986 10986 10985 10984 10983 10982 10982 10981 10981 10980 10979 10978 10977 10976 10976
10982 10983 10983 10982 10981 10981 10982 10982 10983 10986 10988 10990 10991 10992 10993 10994 10994 10995 10996 10996 10996 10997 10997 10997 10997 10997 10997 10997 10997 10997 10997 10997 10997 10997 10997 10996 10995 10995 10994 10994 10994 10994 10994 10994 10994 10994 10994 10993 10993 10992 10991 10990 10989 10990 10990 10989 10988 10987 10987 10987 10987 10986 10986 10986 10985 10984 10983 10983 10983 10983 10983 10982 10982 10982 10981 10980 10979 10978 10978 10977 10976 10974 10973 10973 10973
10975 10976 10976 10976 10977 10976 10975 10976 10978 10980 10983 10984 10985 10986 10988 10990 10991 10991 10991 10992 10993 10994 10994 10993 10993 10992 10992 10991 10991 10992 10992 10992 10992 10992 10992 10992 10991 10990 10990 10990 10990 10989 10989 10989 10990 10990 10990 10989 10989 10988 10987 10986 10986 10986 10985 10985 10985 10984 10983 10983 10983 10982 10982 10982 10981 10980 10979 10978 10978 10979 10978 10978 10978 10978 10977 10977 10976 10975 10974 10974 10972 10971 10970 10969 10969